Location: The Saddle
(36.8333°N, 80.3417°W)
Time: 13:20:11
(UTC-05:00)

A-11 Canister half - Pass Details

Date: 12 December 2023
Orbit: 1512 x 1687 km, 47.2° (Epoch: 22 February)

Event Time Altitude Azimuth Distance (km) Brightness Sun altitude
Rises 06:25:05 0° 298° (WNW) 4,871 - -11.7°
Reaches altitude 10° 06:28:34 10° 289° (WNW) 3,903 - -11.0°
Exits shadow 06:29:23 13° 287° (WNW) 3,695 10.3 -10.9°
Maximum altitude 06:37:08 33° 230° (SW) 2,536 9.9 -9.4°
Drops below altitude 10° 06:45:48 10° 171° (S) 3,941 11.6 -7.8°
Sets 06:49:23 0° 162° (SSE) 4,924 12.3 -7.2°
